Location: College Park
(38.9810°N, 76.9370°W)
Time: 03:11:24
(UTC-05:00)

Tiangong 1 - Pass Details

Date: 16 February 2018
Orbit: 246 x 267 km, 42.8° (Epoch: 24 February)

Event Time Altitude Azimuth Distance (km) Brightness Sun altitude
Exits shadow 05:51:48 33° 320° (NW) 446 1.0 -13.5°
Maximum altitude 05:52:29 49° 15° (NNE) 334 0.8 -13.3°
Drops below altitude 10° 05:54:43 10° 93° (E) 1,033 4.7 -12.9°
Sets 05:56:39 0° 99° (E) 1,842 6.6 -12.5°
